www.pogodaiklimat.ru
Время
(UTC), дата
04 12.10
05 12.10
06 12.10
07 12.10
08 12.10
09 12.10
10 12.10
11 12.10
12 12.10
13 12.10
14 12.10
15 12.10
16 12.10
17 12.10
18 12.10
19 12.10
20 12.10
21 12.10
22 12.10
23 12.10
00 13.10
01 13.10
02 13.10
03 13.10
04 13.10
05 13.10
06 13.10
07 13.10
08 13.10
09 13.10
10 13.10
11 13.10
12 13.10
13 13.10
14 13.10
15 13.10
16 13.10
17 13.10
18 13.10
19 13.10
20 13.10
21 13.10
22 13.10
23 13.10
00 14.10
01 14.10
02 14.10
03 14.10
04 14.10
05 14.10
06 14.10
07 14.10
08 14.10
09 14.10
10 14.10
11 14.10
12 14.10
13 14.10
14 14.10
15 14.10
16 14.10
17 14.10
18 14.10
19 14.10
20 14.10
21 14.10
22 14.10
23 14.10
00 15.10
01 15.10
02 15.10
03 15.10
04 15.10
05 15.10
06 15.10
07 15.10
08 15.10
09 15.10
10 15.10
11 15.10
12 15.10
13 15.10
14 15.10
15 15.10
16 15.10
17 15.10
18 15.10
19 15.10
20 15.10
21 15.10
22 15.10
23 15.10
00 16.10
01 16.10
02 16.10
03 16.10
04 16.10
05 16.10
06 16.10
07 16.10
08 16.10
09 16.10
10 16.10
11 16.10
12 16.10
13 16.10
14 16.10
15 16.10
16 16.10
17 16.10
18 16.10
19 16.10
20 16.10
21 16.10
22 16.10
23 16.10
00 17.10
01 17.10
02 17.10
03 17.10
04 17.10
05 17.10
06 17.10
07 17.10
08 17.10
09 17.10
10 17.10
11 17.10
12 17.10
13 17.10
14 17.10
15 17.10
16 17.10
17 17.10
18 17.10
19 17.10
20 17.10
21 17.10
22 17.10
23 17.10
00 18.10
01 18.10
02 18.10
03 18.10
04 18.10
05 18.10
06 18.10
07 18.10
09 18.10
10 18.10
11 18.10
12 18.10
13 18.10
14 18.10
15 18.10
16 18.10
17 18.10
18 18.10
19 18.10
20 18.10
21 18.10
22 18.10
23 18.10
00 19.10
01 19.10
02 19.10
03 19.10
Ветер
(напр.,м/с)
Видим. Явления Облачность Т
(С)
Тd
(С)
f
(%)
Тe
(С)
Тes
(С)
Комфортность P
(гПа)
Po
(гПа)
Тmin
(С)
Tmax
(С)
R
(мм)
R24
(мм)
S
(см)
ЮЗ 6 45 км 9/9 360 м
[]
+12.8 +11.7 93 +10 +10 тепло 1000.8 1000.2
ЮЗ 6 30 км слаб. ливневой дождь 10/0 2000 м
[]
+12.6 +11.5 93 +10 +10 тепло 1001.1 1000.5
ЮЗ 5 40 км в посл. час дождь {ливн. осадки} 9/9 1500 м
[]
+12.4 +11.3 93 +10 +10 тепло 1001.5 1000.9 +12.3 +13.8
ЮЗ 7 45 км в посл. час дождь {ливн. осадки} 9/9 1500 м
[]
+12.4 +10.6 89 +9 +9 тепло 1002.2 1001.6 0.1
ЮЗ 8 50 км ясно +12.6 +9.9 84 +10 +10 тепло 1002.9 1002.3
ЮЗ 7 50 км 1/0
[]
+12.9 +10.0 83 +10 +11 по сезону 1003.7 1003.1 0.0
ЮЗ 8 50 км 9/9 600 м
[]
+13.1 +10.5 84 +10 +10 тепло 1004.3 1003.6
ЮЗ 8 50 км {ливн. осадки} 9/9 600 м
[]
+13.8 +10.7 82 +11 +11 тепло 1004.7 1004.1
ЮЗ 8 45 км {ливн. осадки} 9/9 750 м
[]
+14.2 +10.8 80 +12 +12 тепло 1004.9 1004.3
ЮЗ 9 50 км 8/8 840 м
[]
+13.8 +10.7 82 +11 +11 тепло 1005.1 1004.5
ЮЗ 8 50 км 5/5 1200 м
[]
+13.8 +10.6 81 +11 +11 тепло 1005.1 1004.5
ЮЗ 9 50 км в посл. час дождь {ливн. осадки} 6/6 1500 м
[]
+13.1 +10.3 83 +10 +10 по сезону 1005.9 1005.3
ЮЗ 8 55 км 9/0
[]
+12.7 +10.4 86 +10 +10 тепло 1006.1 1005.5
ЮЗ 7 55 км 9/0
[]
+12.2 +10.2 88 +9 +9 тепло 1006.7 1006.0
ЮЗ 6 40 км 10/0
[]
+12.1 +10.4 89 +9 +9 по сезону 1007.0 1006.4 +12.0 +14.5
ЮЗ 6 40 км 9/0
[]
+12.1 +10.3 89 +9 +9 тепло 1007.5 1006.9
ЮЗ 5 35 км 9/0
[]
+11.9 +10.3 90 +9 +9 тепло 1008.0 1007.3
ЮЗ 6 30 км {дымка} 1/0
[]
+11.9 +10.6 92 +9 +9 по сезону 1008.6 1008.0
З 5 35 км 3/0
[]
+11.5 +9.9 90 +9 +9 тепло 1009.0 1008.3
ЮЗ 4 30 км 3/0
[]
+11.2 +9.9 92 +9 +9 тепло 1009.4 1008.8
З 4 30 км 1/0
[]
+11.4 +10.4 94 +9 +9 тепло 1009.8 1009.2
З 3 28 км 9/0
[]
+11.5 +10.5 94 +10 +10 тепло 1010.1 1009.5
ЮЗ 3 24 км 5/0
[]
+11.0 +10.5 97 +9 +9 тепло 1010.2 1009.6
ЮЗ 3 27 км 1/0
[]
+11.1 +10.7 97 +9 +9 тепло 1010.4 1009.8
ЮЗ 3 30 км 6/6 180 м
[]
+11.2 +10.6 96 +9 +9 тепло 1010.3 1009.7 0.1
ЮЗ 4 30 км 9/0
[]
+11.4 +10.8 96 +9 +9 тепло 1010.4 1009.8
ЮЗ 3 27 км 9/9 180 м
[]
+11.4 +10.8 96 +10 +10 тепло 1011.2 1010.6 +10.8 +12.4 0.0
ЮЗ 3 28 км 9/9 240 м
[]
+11.8 +11.0 95 +10 +10 тепло 1011.5 1010.9
ЮЗ 3 26 км 9/9 180 м
[]
+12.1 +11.3 95 +10 +10 тепло 1011.9 1011.3
ЮЗ 4 27 км 9/9 210 м
[]
+12.3 +11.1 92 +10 +11 по сезону 1012.1 1011.4
ЮЗ 4 27 км слаб. ливневой дождь 9/9 240 м
[]
+12.8 +11.4 91 +11 +11 тепло 1012.3 1011.7
Ю 3 40 км слаб. ливневой дождь 9/9 240 м
[]
+12.8 +11.2 90 +12 +12 тепло 1012.0 1011.4
Ю 3 40 км в посл. час дождь {ливн. осадки} 10/10 1500 м
[]
+12.3 +11.0 92 +11 +11 по сезону 1012.1 1011.5 0.1
ЮВ 3 60 км 10/10 1320 м
[]
+12.3 +10.5 89 +11 +11 тепло 1011.9 1011.3
ЮВ 3 55 км 10/10 330 м
[]
+12.3 +10.3 88 +11 +11 тепло 1011.2 1010.6
ЮВ 5 60 км 10/10 660 м
[]
+12.0 +9.9 87 +10 +10 по сезону 1010.8 1010.2
ЮВ 6 26 км слаб. дождь 10/10 480 м
[]
+11.6 +10.2 91 +9 +9 тепло 1009.1 1008.5 0.1
В 6 12 км сильн. ливневой дождь 10/10 180 м
[]
+11.4 +10.7 95 +8 +8 тепло 1008.0 1007.4 4
ЮВ 8 30 км слаб. ливневой дождь 10/10 180 м
[]
+11.6 +10.9 95 +8 +8 по сезону 1006.5 1005.9 +11.2 +13.1 6
ЮВ 9 11 км дождь {ливн. осадки} 10/10 120 м
[]
+12.7 +12.3 97 +9 +9 тепло 1004.5 1003.9 3
Ю 8 22 км в посл. час дождь {ливн. осадки} 9/9 120 м
[]
+14.8 +14.0 95 +13 +13 тепло 1003.9 1003.3 0.3
Ю 9 24 км в посл. час дождь {ливн. осадки} 9/0
[]
+15.3 +14.4 94 +13 +13 тепло 1003.0 1002.4 4
Ю 7 30 км 9/9 1050 м
[]
+15.8 +14.5 92 +14 +14 тепло 1003.5 1002.9 0.1
ЮЗ 4 45 км 9/9 630 м
[]
+16.8 +14.9 89 +16 +16 тепло 1003.5 1002.9
ЮЗ 7 40 км 9/9 720 м
[]
+16.6 +14.7 89 +15 +15 тепло 1003.8 1003.2 0.0
ЮЗ 9 50 км ясно +15.6 +12.9 84 +14 +14 тепло 1004.2 1003.6
ЮЗ 9 45 км 5/5 660 м
[]
+14.6 +11.9 84 +12 +12 тепло 1004.5 1003.9
ЮЗ 11 40 км 9/9 700 м
[]
+14.5 +11.4 82 +12 +12 тепло 1005.3 1004.7
ЮЗ 10 45 км 9/9 840 м
[]
+14.3 +10.2 76 +12 +12 тепло 1005.3 1004.7
ЮЗ 11 40 км 9/9 800 м
[]
+13.9 +10.0 77 +11 +11 тепло 1005.8 1005.2 0.1
З 12-17
{17}
45 км 6/6 800 м
[]
+13.4 +8.5 72 +10 +10 тепло 1006.9 1006.3 +11.6 +17.2 0.2
З 10 50 км 4/4 800 м
[]
+13.2 +8.6 74 +10 +10 тепло 1008.3 1007.7 0.1
З 11 50 км 4/4 720 м
[]
+13.2 +8.0 71 +10 +10 тепло 1010.1 1009.5 0.1
З 11-17
{20}
50 км 1/1 800 м
[]
+13.5 +7.6 67 +10 +10 тепло 1011.7 1011.1 0.2
З 8 50 км 9/9 750 м
[]
+13.2 +7.9 70 +10 +11 тепло 1013.1 1012.5
З 8 60 км 8/8 800 м
[]
+13.0 +6.9 66 +10 +11 тепло 1014.3 1013.6
СЗ 7
{20}
65 км 9/9 800 м
[]
+12.9 +7.2 68 +10 +11 по сезону 1014.4 1013.8
З 7 65 км 9/9 800 м
[]
+12.8 +7.0 68 +10 +10 тепло 1014.9 1014.2
СЗ 6 65 км 9/9 720 м
[]
+12.8 +7.2 69 +11 +11 тепло 1015.1 1014.5
СЗ 5 65 км 10/10 700 м
[]
+12.1 +6.9 70 +10 +10 по сезону 1015.6 1014.9
С 4 65 км 9/9 720 м
[]
+11.9 +6.9 71 +10 +10 тепло 1015.9 1015.2
>70 км 9/0 2000 м
[]
+11.2 +6.4 72 1016.3 1015.6
СЗ 2 65 км 9/0
[]
+11.0 +6.4 73 +10 +10 тепло 1016.5 1015.9 +10.7 +14.0
С 1 65 км 9/0 2000 м
[]
+10.9 +6.6 75 +12 +12 тепло 1016.5 1015.8
В 2 65 км 10/0 2000 м
[]
+10.6 +7.2 79 +10 +10 тепло 1016.2 1015.6
В 4 55 км 10/0
[]
+11.3 +7.8 79 +9 +9 по сезону 1015.4 1014.8
В 5 60 км в посл. час дождь {ливн. осадки} 9/0 2000 м
[]
+10.7 +7.7 82 +8 +8 тепло 1015.8 1015.2
В 3 60 км 9/0 2000 м
[]
+10.5 +7.6 82 +9 +9 тепло 1016.2 1015.5
В 5 15 км дождь 10/0 2000 м
[]
+9.8 +8.0 89 +7 +7 по сезону 1014.8 1014.2 0.8
В 5 18 км дождь 10/10 1380 м
[]
+9.9 +8.3 90 +7 +7 тепло 1015.2 1014.5 3
ЮВ 6 19 км сильн. дождь 10/10 1080 м
[]
+10.1 +8.0 87 +7 +7 тепло 1014.0 1013.3 11
ЮВ 10 60 км слаб. дождь 9/0 2000 м
[]
+10.6 +8.1 85 +6 +6 по сезону 1011.9 1011.2
ЮВ 11 65 км {дождь, дымка} 6/6 1470 м
[]
+10.9 +8.3 84 +7 +7 тепло 1011.4 1010.8
ЮВ 6 65 км 9/9 1500 м
[]
+11.3 +8.9 85 +8 +8 тепло 1011.4 1010.8
ЮВ 9
{16}
65 км 3/3 1500 м
[]
+11.5 +9.0 85 +8 +8 по сезону 1010.3 1009.7 +9.5 +11.6 0.0
ЮВ 9 60 км ясно +11.8 +9.0 83 +8 +8 тепло 1010.1 1009.5
ЮВ 7 60 км ясно +13.0 +9.2 78 +10 +11 тепло 1009.7 1009.0
ЮВ 8 50 км ясно +14.3 +10.7 79 +12 +12 тепло 1009.3 1008.7
ЮВ 7 45 км ясно +14.2 +11.3 83 +12 +13 тепло 1009.2 1008.6
ЮВ 6 40 км ясно +14.5 +11.8 84 +13 +14 тепло 1008.8 1008.2
ЮВ 7 35 км ясно +14.5 +11.8 84 +12 +14 тепло 1007.9 1007.2
ЮВ 6 30 км ясно +14.5 +11.9 84 +13 +14 тепло 1007.1 1006.5
ЮВ 4 27 км ясно +14.6 +12.0 84 +13 +14 тепло 1006.9 1006.3
ЮВ 4 25 км ясно +14.0 +11.8 87 +13 +13 тепло 1006.6 1005.9
ЮВ 4 20 км ясно +13.3 +11.6 89 +12 +12 тепло 1007.1 1006.5
ЮВ 3 18 км ясно +12.8 +11.6 92 +11 +11 тепло 1007.7 1007.1
ЮВ 2 15 км ясно +12.2 +11.1 93 +11 +11 тепло 1007.5 1006.8 +11.4 +15.0
ЮВ 1 8000 м дымка ясно +12.1 +11.2 94 +12 +12 тепло 1007.5 1006.9
В 2 8000 м дымка 9/0
[]
+11.6 +11.0 96 +10 +10 тепло 1006.9 1006.3
В 3 100 м туман ясно +11.4 +11.3 99 +10 +10 тепло 1006.8 1006.2
СВ 2 100 м туман ясно +11.4 +11.4 100 +10 +10 тепло 1006.8 1006.2
СВ 2 100 м туман ясно +11.4 +11.4 100 +10 +10 тепло 1006.4 1005.8
С 2 100 м туман ясно +11.5 +11.5 100 +10 +10 тепло 1006.1 1005.5
СВ 2 100 м туман ясно +11.5 +11.5 100 +10 +10 тепло 1006.0 1005.4
СВ 3 200 м слаб. дождь ясно +11.4 +11.4 100 +9 +9 тепло 1005.8 1005.2 0.1
СВ 3 600 м туман {ливн. осадки} ясно +11.4 +11.4 100 +9 +9 тепло 1005.2 1004.6 0.0
С 3 5000 м в посл. час туман 10/10 60 м
[]
+11.2 +11.2 100 +9 +9 тепло 1005.4 1004.7
С 3 7000 м дымка 10/10 90 м
[]
+11.3 +11.3 100 +9 +9 тепло 1005.1 1004.5
С 3 3400 м дымка 10/10 60 м
[]
+11.3 +11.2 99 +10 +10 тепло 1004.9 1004.2 +11.1 +12.5
СЗ 3 2500 м слаб. ливневой дождь 10/10 60 м
[]
+11.5 +11.4 99 +10 +10 тепло 1004.9 1004.3 0.1
С 3 2500 м слаб. ливневой дождь 10/10 60 м
[]
+11.6 +11.5 99 +10 +10 тепло 1005.1 1004.5 0.1
С 4 14 км {ливн. осадки} 10/10 90 м
[]
+11.9 +11.5 97 +10 +10 тепло 1005.0 1004.4 0.2
С 4 18 км 10/10 120 м
[]
+12.0 +11.4 96 +10 +10 тепло 1004.9 1004.3
С 4 16 км 10/10 180 м
[]
+12.1 +11.3 95 +10 +10 тепло 1004.8 1004.2
С 2 15 км 10/10 180 м
[]
+12.4 +11.6 95 +11 +11 тепло 1005.0 1004.4
СЗ 1 11 км слаб. дождь 10/10 210 м
[]
+13.0 +12.0 94 +14 +14 тепло 1005.0 1004.4
З 3 9000 м слаб. дождь 10/10 180 м
[]
+12.7 +12.2 97 +11 +11 тепло 1005.3 1004.7 0.1
СЗ 4
{10}
7000 м дождь 10/10 120 м
[]
+12.7 +12.4 98 +11 +11 тепло 1005.3 1004.7 2
З 3 6000 м сильн. дождь 10/10 120 м
[]
+12.8 +12.4 97 +11 +11 тепло 1005.5 1004.9 7
З 4 19 км слаб. дождь 10/10 150 м
[]
+12.8 +12.1 96 +11 +11 тепло 1005.8 1005.2 3
З 4
{10}
9000 м дождь 10/10 180 м
[]
+12.6 +12.2 97 +11 +11 тепло 1006.4 1005.8 +11.3 +13.1 11
З 4 35 км в посл. час дождь 9/9 210 м
[]
+12.5 +11.9 96 +11 +11 тепло 1006.7 1006.1 0.2
З 4 21 км 9/9 150 м
[]
+12.3 +11.8 97 +10 +10 тепло 1007.1 1006.4
З 3 10 км 10/10 150 м
[]
+12.4 +12.0 97 +11 +11 тепло 1007.5 1006.9 0.2
З 4 9000 м дымка 10/10 150 м
[]
+12.5 +12.2 98 +11 +11 тепло 1007.8 1007.1
З 5 10 км в посл. час осадки {ливн. осадки} 9/9 240 м
[]
+12.3 +11.7 96 +10 +10 тепло 1008.0 1007.4
З 3 6000 м дымка 1/1 150 м
[]
+10.6 +10.4 99 +9 +9 тепло 1008.3 1007.7
З 3 2900 м дымка ясно +10.0 +10.0 100 +8 +8 тепло 1008.5 1007.8
ЮЗ 1 100 м туман ясно +7.6 +7.6 100 +8 +8 тепло 1008.4 1007.8
Ю 2 5000 м в посл. час туман ясно +7.7 +7.7 100 +6 +6 по сезону 1008.5 1007.9
Ю 2 400 м туман ясно +10.5 +10.5 100 +9 +9 тепло 1008.5 1007.8
Ю 3 11 км в посл. час туман 9/9 240 м
[]
+11.4 +11.2 99 +9 +9 тепло 1008.2 1007.6 0.1
Ю 4 8000 м слаб. дождь 10/10 180 м
[]
+11.9 +11.4 97 +10 +10 тепло 1008.2 1007.6 +7.2 +12.9 0.3
Ю 4 6000 м слаб. дождь 10/10 120 м
[]
+12.3 +11.9 97 +10 +10 тепло 1008.5 1007.9 0.5
Ю 5 7000 м слаб. дождь 10/10 90 м
[]
+12.4 +12.1 98 +10 +10 тепло 1008.4 1007.8 1
Ю 6 17 км слаб. ливневой дождь 10/10 90 м
[]
+12.8 +12.5 98 +10 +10 тепло 1008.5 1007.8 2
Ю 6 10 км {ливн. осадки} 10/10 90 м
[]
+13.3 +13.2 99 +11 +11 тепло 1008.6 1008.0 0.1
Ю 6 40 км 10/10 90 м
[]
+13.8 +13.4 97 +12 +12 тепло 1008.6 1008.0 0.1
Ю 5 10 км 10/10 90 м
[]
+13.7 +13.4 98 +12 +12 тепло 1008.7 1008.0 0.2
Ю 5 8000 м дымка 10/10 90 м
[]
+13.5 +13.3 99 +11 +11 тепло 1008.9 1008.3
ЮЗ 4 7000 м дымка 10/10 90 м
[]
+13.9 +13.5 97 +12 +12 тепло 1009.2 1008.6
ЮЗ 4 19 км в посл. час осадки {ливн. осадки} 10/10 120 м
[]
+13.8 +13.6 99 +12 +12 тепло 1009.6 1009.0 0.0
ЮЗ 4 19 км в посл. час осадки {ливн. осадки} 10/10 120 м
[]
+13.7 +13.4 98 +12 +12 тепло 1010.0 1009.4 0.1
ЮЗ 3 55 км 10/0 2000 м
[]
+13.5 +12.9 96 +12 +12 тепло 1010.4 1009.7
Ю 3 30 км 9/0 2000 м
[]
+12.7 +12.4 98 +11 +11 тепло 1010.6 1010.0 +11.9 +14.2 0.0
ЮЗ 4 30 км 6/0 2000 м
[]
+12.0 +11.7 98 +10 +10 тепло 1011.0 1010.4
ЮЗ 2 18 км 5/5 120 м
[]
+11.3 +11.2 99 +10 +10 тепло 1011.1 1010.5
ЮЗ 3 19 км 10/10 120 м
[]
+12.4 +12.0 97 +11 +11 тепло 1011.3 1010.7
ЮЗ 3 20 км 10/10 1500 м
[]
+12.0 +11.7 98 +10 +10 тепло 1011.3 1010.7
ЮЗ 2 17 км 6/6 1500 м
[]
+11.3 +11.2 99 +10 +10 тепло 1011.2 1010.6
Ю 1 100 м туман ясно +9.5 +9.5 100 +9 +9 тепло 1011.1 1010.4
ЮВ 1 800 м туман 9/9 1380 м
[]
+11.2 +11.2 100 +12 +12 тепло 1010.6 1010.0
ЮВ 3 400 м туман ясно +11.8 +11.8 100 +10 +10 тепло 1010.1 1009.5
ЮВ 4 3200 м сильн. дождь 10/10 60 м
[]
+11.8 +11.8 100 +10 +10 тепло 1010.0 1009.4 1
В 2 8000 м слаб. дождь 10/10 180 м
[]
+12.0 +11.9 99 +11 +11 тепло 1009.3 1008.7 1
ЮВ 5 7000 м в посл. час дождь {ливн. осадки} 10/10 120 м
[]
+12.7 +12.5 99 +10 +10 тепло 1008.6 1008.0 0.5
Ю 7 40 км 9/9 120 м
[]
+13.0 +12.4 96 +10 +10 тепло 1008.1 1007.5 +9.3 +13.3 2
Ю 7 27 км 9/9 120 м
[]
+13.3 +12.5 95 +11 +11 тепло 1008.1 1007.4 0.1
Ю 5 30 км {ливн. осадки} н/о +13.3 +12.9 97 +11 +11 тепло 1007.8 1007.2 1
Ю 6 30 км 10/10 120 м
[]
+13.4 +12.9 97 +11 +11 тепло 1007.6 1007.0
Ю 6 35 км 3/3 660 м
[]
+14.1 +12.8 92 +12 +13 тепло 1006.9 1006.3 0.2
Ю 5 30 км 6/6 180 м
[]
+14.0 +13.0 94 +12 +13 тепло 1006.3 1005.7 0.2
Ю 6 30 км 4/0
[]
+13.9 +12.9 94 +12 +13 тепло 1005.8 1005.2
Ю 7 27 км 1/0
[]
+13.7 +12.7 94 +11 +12 тепло 1004.9 1004.3
ЮВ 7 40 км {дымка} 1/0 2000 м
[]
+13.9 +12.4 91 +11 +12 тепло 1004.3 1003.7
ЮВ 7 25 км 4/4 750 м
[]
+13.5 +12.5 94 +11 +11 тепло 1003.8 1003.2
ЮВ 9 40 км 8/0 2000 м
[]
+13.9 +12.7 92 +11 +11 тепло 1002.9 1002.3
Ю 11-17
{17}
9000 м ливневой дождь 10/10 660 м
[]
+13.9 +12.5 91 +11 +11 тепло 1002.3 1001.7 +12.9 +14.9 0.9
ЮЗ 10 >70 км слаб. ливневой дождь 10/10 660 м
[]
+12.6 +9.2 80 +9 +9 тепло 1003.6 1002.9 0.9
ЮЗ 7 >70 км в посл. час дождь {ливн. осадки} 9/9 750 м
[]
+12.2 +9.5 84 +9 +9 тепло 1003.7 1003.1
ЮЗ 8
{17}
65 км 9/9 800 м
[]
+12.1 +8.9 81 +9 +9 тепло 1004.0 1003.4 0.9
ЮЗ 8 55 км 9/9 750 м
[]
+12.1 +8.8 80 +9 +9 тепло 1004.8 1004.2
ЮЗ 8 55 км 8/8 700 м
[]
+11.3 +8.4 82 +8 +8 тепло 1005.0 1004.3
ЮЗ 7
{17}
50 км ясно +10.8 +8.2 84 +7 +7 тепло 1005.1 1004.5
ЮЗ 7 55 км ясно +10.8 +8.3 85 +7 +7 тепло 1005.5 1004.9
Ю 6 55 км ясно +10.7 +8.3 85 +7 +7 тепло 1005.5 1004.9
ЮЗ 7 55 км 3/3 720 м
[]
+10.4 +7.9 84 +7 +7 тепло 1006.0 1005.3
Местоположение метеостанции Копенгаген (Дания): широта 55.62 долгота 12.65 высота над уровнем моря 5 м.
В архиве по умолчанию представлена погода в Копенгагене за последнюю неделю. Архивные данные за месяц целиком и за предыдущие месяцы, начиная с января 2011 года, Вы можете получить, выбрав интересующий диапазон дат из раскрывающегося списка и нажав кнопку "Найти!".
*Определитесь, кто Вы:
Внимание! Время в таблицах - всемирное. Для получения местного времени необходимо прибавить поправку, которая равна 1 ч.
Смотрите также архив погоды в соседних городах и на ближайших метеорологических станциях:
Партнеры нашего сайта:      
Пояснения к столбцам:
  • Ветер - указаны скорость ветра в м/с - средняя за 10 мин, порывы в срок и между сроками (в фигурных скобках) и направление, откуда дует ветер: С - северный,
  • СВ - северо-восточный, В - восточный, ЮВ - юго-восточный, Ю - южный, ЮЗ - юго-западный, З - западный, СЗ - северо-западный.
  • Видимость - горизонтальная дальность видимости в метрах или километрах. При видимости от 1 до 10 км при отсутствии осадков обычно наблюдается дымка, при ухудшении видимости до 1 км и менее - туман. В сухую погоду видимость может ухудшаться дымом, пылью или мглою.
  • Явления - указаны атмосферные явления, наблюдавшиеся в срок или в последний час перед сроком; фигурными скобками обозначены явления, наблюдавшиеся между сроками (за 1-3 часа до срока); квадратными скобками обозначены град или гололедные отложения с указанием их диаметра в мм.
  • Облачность - указаны через наклонную черту общая и нижняя облачность в баллах и высота нижней границы облаков в метрах; квадратными скобками обозначены формы облаков: Ci - перистые, Cs - перисто-слоистые, Cc - перисто-кучевые, Ac - высококучевые, As - высокослоистые, Sc - слоисто-кучевые, Ns - слоисто-дождевые, Cu - кучевые, Cb - кучево-дождевые. Подробнее классификацию облаков см. в Атласе облаков (PDF).
  • T - Температура воздуха - температура, измеренная на высоте 2 м над землей.
  • Td - Температура точки росы - температура, при понижении до которой содержащийся в воздухе водяной пар достигнет насыщения.
  • f - Относительная влажность воздуха - влажноcть воздуха, измеренная на высоте 2 м над землей.
  • Te - Эффективная температура - температура, которую ощущает одетый по сезону человек в тени. Характеристика душности погоды. При расчете учитывается влияние влажности воздуха и скорости ветра на теплоощущения человека.
  • Tes - Эффективная температура на солнце - температура, которую ощущает человек, с поправкой на солнечный нагрев. Характеристика знойности погоды. Зависит от высоты солнца над горизонтом, облачности и скорости ветра. Ночью, в пасмурную погоду, а также при ветре 12 м/с и более поправка равна нулю.
  • P - Атмосферное давление - приведенное к уровню моря атмосферное давление.
  • Po - Атмосферное давление - измеренное на уровне метеостанции атмосферное давление.
  • Tmin - Минимальная температура - минимум температуры воздуха на высоте 2 м над землей.
  • Tmax - Максимальная температура - максимум температуры воздуха на высоте 2 м над землей.
  • R - Количество осадков - Количество выпавших осадков за период времени, мм. При наведении курсора мыши на число - период времени, за который выпало указанное количество осадков.
  • R24 - Количество осадков - Количество выпавших осадков за 24 часа, мм.
  • S - Снежный покров - Высота снежного покрова, см. При наведении курсора мыши на число - состояние снежного покрова и степень покрытия местности в баллах.